Location: Newark
(41.0400°S, 62.7845°W)
Time: 00:40:53
(UTC+00:00)

Tiros 1 - All Passes

Search period start: 28 November 2021 00:00
Search period end: 08 December 2021 00:00
Orbit: 629 x 664 km, 48.4° (Epoch: 27 November)

Date Brightness Start Highest point End Pass type
(mag) Time Alt. Az. Time Alt. Az. Time Alt. Az.
28 Nov - 12:17:43 10° NW 12:22:19 48° NE 12:26:55 10° ESE daylight
28 Nov - 13:59:54 10° W 14:04:34 50° SSW 14:09:11 10° ESE daylight
28 Nov - 15:43:08 10° WSW 15:47:27 33° S 15:51:45 10° ESE daylight
28 Nov - 17:25:42 10° WSW 17:30:20 53° SSE 17:34:55 10° E daylight
28 Nov - 19:08:03 10° WSW 19:12:30 43° NW 19:16:53 10° NNE daylight
29 Nov - 11:02:48 10° N 11:06:23 21° NE 11:09:59 10° E daylight
29 Nov - 12:43:21 10° WNW 12:48:09 87° SW 12:52:57 10° ESE daylight
29 Nov - 14:26:20 10° WSW 14:30:46 37° S 14:35:11 10° ESE daylight
29 Nov - 16:09:20 10° WSW 16:13:46 37° S 16:18:08 10° ESE daylight
29 Nov - 17:51:37 10° WSW 17:56:22 89° SSE 18:01:03 10° ENE daylight
29 Nov - 19:34:41 10° W 19:38:05 20° NW 19:41:27 10° N daylight
30 Nov - 11:27:26 10° NNW 11:32:00 45° NE 11:36:33 10° ESE daylight
30 Nov - 13:09:30 10° W 13:14:12 52° SSW 13:18:52 10° ESE daylight
30 Nov - 14:52:44 10° WSW 14:57:05 33° S 15:01:22 10° ESE daylight
30 Nov - 16:35:21 10° WSW 16:39:58 50° SSE 16:44:33 10° E daylight
30 Nov - 18:17:40 10° WSW 18:22:11 46° NW 18:26:38 10° NE daylight
01 Dec - 10:12:40 10° N 10:16:05 20° NE 10:19:30 10° E daylight
01 Dec - 11:52:59 10° WNW 11:57:48 88° NNE 12:02:37 10° ESE daylight
01 Dec - 13:35:55 10° W 13:40:23 38° SSW 13:44:50 10° ESE daylight
01 Dec - 15:18:58 10° WSW 15:23:23 36° S 15:27:45 10° ESE daylight
01 Dec - 17:01:16 10° WSW 17:06:02 83° SSE 17:10:42 10° ENE daylight
01 Dec - 18:44:12 10° W 18:47:47 22° NW 18:51:20 10° N daylight
02 Dec - 10:37:09 10° NNW 10:41:40 41° NE 10:46:11 10° ESE daylight
02 Dec - 12:19:06 10° W 12:23:49 55° SSW 12:28:32 10° ESE daylight
02 Dec - 14:02:20 10° WSW 14:06:41 33° S 14:11:00 10° ESE daylight
02 Dec - 15:45:00 10° WSW 15:49:37 48° SSE 15:54:10 10° E daylight
02 Dec - 17:27:17 10° WSW 17:31:52 51° NW 17:36:23 10° NE daylight
03 Dec - 09:22:33 10° N 09:25:47 18° NE 09:29:00 10° E daylight
03 Dec - 11:02:38 10° NW 11:07:28 83° NNE 11:12:16 10° ESE daylight
03 Dec - 12:45:29 10° W 12:50:00 39° SSW 12:54:30 10° ESE daylight
03 Dec - 14:28:35 10° WSW 14:33:00 36° S 14:37:22 10° ESE daylight
03 Dec - 16:10:54 10° WSW 16:15:41 79° SSE 16:20:22 10° ENE daylight
03 Dec - 17:53:44 10° W 17:57:30 24° NW 18:01:13 10° N daylight
04 Dec - 09:46:53 10° NNW 09:51:20 38° NE 09:55:48 10° ESE daylight
04 Dec - 11:28:41 10° WNW 11:33:27 58° SSW 11:38:12 10° ESE daylight
04 Dec - 13:11:55 10° WSW 13:16:17 34° S 13:20:38 10° ESE daylight
04 Dec - 14:54:37 10° WSW 14:59:14 46° SSE 15:03:47 10° E daylight
04 Dec - 16:36:54 10° WSW 16:41:33 55° NW 16:46:06 10° NE daylight
05 Dec - 08:32:29 10° N 08:35:29 16° NE 08:38:28 10° E daylight
05 Dec - 10:12:17 10° NW 10:17:07 77° NNE 10:21:56 10° ESE daylight
05 Dec - 11:55:04 10° W 11:59:37 40° SSW 12:04:09 10° ESE daylight
05 Dec - 13:38:11 10° WSW 13:42:36 35° S 13:46:59 10° ESE daylight
05 Dec - 15:20:33 10° WSW 15:25:20 74° SSE 15:30:02 10° ENE daylight
05 Dec - 17:03:17 10° W 17:07:12 26° NW 17:11:03 10° NNE daylight
06 Dec - 08:56:38 10° NNW 09:01:00 35° NE 09:05:24 10° ESE daylight
06 Dec - 10:38:17 10° WNW 10:43:05 61° SSW 10:47:51 10° ESE daylight
06 Dec - 12:21:30 10° WSW 12:25:54 34° S 12:30:16 10° ESE daylight
06 Dec - 14:04:15 10° WSW 14:08:52 45° SSE 14:13:24 10° E daylight
06 Dec - 15:46:32 10° WSW 15:51:13 60° NW 15:55:50 10° NE daylight
06 Dec - 17:31:13 10° WNW 17:32:38 11° NW 17:34:03 10° NNW daylight
07 Dec - 07:42:28 10° NNE 07:45:11 15° NE 07:47:53 10° E visible
07 Dec - 09:21:56 10° NW 09:26:45 72° NNE 09:31:35 10° ESE daylight
07 Dec - 11:04:38 10° W 11:09:14 42° SSW 11:13:48 10° ESE daylight
07 Dec - 12:47:48 10° WSW 12:52:13 35° S 12:56:35 10° ESE daylight
07 Dec - 14:30:11 10° WSW 14:34:58 70° SSE 14:39:41 10° ENE daylight
07 Dec - 16:12:50 10° WSW 16:16:54 28° NW 16:20:53 10° NNE daylight
